Location: Iwkowa
(49.8210°N, 20.5761°E)
Time: 07:16:17
(UTC+02:00)

ISS - Visible Passes

Search period start: 27 May 2018 00:00
Search period end: 06 June 2018 00:00
Orbit: 402 x 407 km, 51.6° (Epoch: 27 May)

Date Brightness Start Highest point End Pass type
(mag) Time Alt. Az. Time Alt. Az. Time Alt. Az.
27 May -3.8 00:23:29 10° WNW 00:26:26 63° WSW 00:26:26 63° WSW visible
27 May -3.3 21:54:40 10° W 21:57:55 61° N 22:01:10 10° ENE visible
27 May -3.9 23:31:17 10° WNW 23:34:34 86° NNE 23:35:43 37° ESE visible
28 May -1.3 01:08:00 10° W 01:08:20 12° W 01:08:20 12° W visible
28 May -3.6 22:39:03 10° WNW 22:42:20 69° N 22:45:05 14° E visible
29 May -2.6 00:15:37 10° W 00:17:42 30° WSW 00:17:42 30° WSW visible
29 May -3.3 21:46:48 10° WNW 21:50:03 62° N 21:53:19 10° E visible
29 May -3.9 23:23:20 10° WNW 23:26:36 62° SSW 23:27:06 52° SSE visible
30 May -3.9 22:31:05 10° WNW 22:34:23 86° SSW 22:36:31 20° ESE visible
31 May -1.7 00:07:55 10° W 00:09:08 17° WSW 00:09:08 17° WSW visible
31 May -3.6 21:38:50 10° WNW 21:42:06 74° N 21:45:23 10° E visible
31 May -3.1 23:15:26 10° W 23:18:28 35° SSW 23:18:35 35° SSW visible
01 Jun -3.6 22:23:05 10° WNW 22:26:18 53° SSW 22:28:04 23° SE visible
02 Jun -3.8 21:30:47 10° WNW 21:34:04 78° SSW 21:37:20 10° ESE visible
02 Jun -2.1 23:07:44 10° W 23:10:10 19° SW 23:10:10 19° SW visible
03 Jun -2.7 22:15:09 10° W 22:18:04 30° SSW 22:19:42 19° SSE visible
04 Jun -3.3 21:22:44 10° WNW 21:25:53 46° SSW 21:29:02 10° SE visible
05 Jun -1.7 22:07:31 10° W 22:09:40 16° SW 22:11:26 12° S visible
